sat.trackr.live / text

‹ back to catalog

STARLINK-30770

NORAD 58132 · 2023-162Q

PAYLOAD ACTIVE UNKNOWN

§ Identity

Operator
Country
US
Launch date
2023-10-22
Launch site
AFETR
Launch vehicle
Mass (kg)
RCS (m²)

Purposes: comms

External: N2YO · Heavens-Above · Gunter

§ Orbital elements

Epoch: 2026-05-25T01:03:15.303168Z

Period
94.27 min
Inclination
43.0012°
Eccentricity
0.0001474
Mean motion
15.27573841 rev/d
Perigee alt
482.1 km
Apogee alt
484.1 km
Semi-major
6,861.2 km
B*
1.3439e-4
RAAN
61.3348°
Arg perigee
264.3099°
Mean anomaly
95.7585°
Rev number
14,397

§ Raw data

STARLINK-307701 58132U 23162Q   26145.04392712  .00003437  00000+0  13439-3 0  99982 58132  43.0012  61.3348 0001474 264.3099  95.7585 15.27573841143971

JSON: /api/v1/satellites/58132 · /tle

For live sub-satellite position, see the globe view (requires WebGL).

§ Visibility from observer

Set your observer location to see the next 7 days of passes ≥ 10°. The values pass through the URL so the page stays shareable.

No JS? Fill the form by hand. The geolocation button needs JavaScript.